METEOR 2-17 DEB, 35373

Orbit data source: Space-Track

METEOR 2-17 DEB, 35373 is space debris in LEO originally from a launch on Sat, 30 Jan 1988 UTC launched from the Plesetsk Missile And Space Complex (PKMTR). Debris objects in space refer to the collection of defunct objects orbiting the Earth. Examples of debris include non-operational satellites, rocket bodies, and fragments generated from explosions, collisions, or faulty payload assembly.

Loading next visibility...
Identifier
35373, 1988-005AH
Orbit
LEO
Country
Flag of CISCIS
Related business
Manufacturer
Unknown
Mission
Spacecraft
Bus & Motor
Unknown
Mass
Unknown
Launch date (UTC)
1988-01-30 (38 years ago)
Launch vehicle
Unknown
Launch site
Plesetsk Missile And Space Complex (PKMTR)
Object type
Payload
Rocket body
Debris
Shape & HBR
Unknown shape, 0.1 m
Radar Cross Section
Small (<0.1 m²)

Expand to show TLE details & history
Last TLE update: 1 week ago

TLE from 1 week ago
0 METEOR 2-17 DEB
1 35373U 88005AH  25300.13445646  .00003481  00000-0  23024-2 0  9994
2 35373  82.5255  86.9360 0023956 225.5282 134.3929 14.01180611559635
Epoch: 2025-10-27T03:13Z
TLE epoch observation values (Epoch: 2025-10-27T03:13:37.038Z)
Latitude
-0.00003°
Longitude
2.79101°
Altitude
904.839 km
Speed
7.393 km/s
True Right ascension
05h 47m 44s
True Declination
0° 00' 00"
Sunlit
Object was in full shadow at epoch
Visualization orbit readout
Latitude
Unknown
Longitude
Unknown
Altitude
Unknown
Speed
Unknown
Apparent Right ascension
Unknown
Apparent Declination
Unknown
Sunlit
N/A
Visualization observer readout
Local Sidereal Time
23:58:44
Azimuth
Unknown
Elevation
Unknown
Doppler factor
Unknown
Orbital elements
Apogee altitude
904.243 km
Perigee altitude
869.435 km
Semi-major axis
7,264.976 km
Eccentricity
0.0024
Inclination
82.5255°
RAAN
86.936°
Arg. of periapsis
225.5282°
True anomaly
134.58865°
Mean anomaly
134.3929°
Eccentric anomaly
134.49081°
Mean motion
3.50503 °/min
Orbital period
102.71 mins
BSTAR
0.0023024
Loading maneuver chart data...
Computing Atmospheric mass density...
Loading historical data...
Loading historical data...
Loading historical data...
Loading historical data...
Loading historical data...
Loading historical data...
Loading historical data...

Documentation

Showing up to 5 results
|